(107901) = 1999 XM201 = 2001 FY95

Discovered at Socorro on 2001-03-16 by LINEAR.

Orbit

Orbit type: Main Belt

Note: WebGL enabled browser required.

epoch2024-03-31.0
epoch JD2460400.5
perihelion date2020-09-30.34808
perihelion JD2459122.84808
argument of perihelion (°)220.44311
ascending node (°)44.83245
inclination (°)13.39192
eccentricity0.0804561
perihelion distance (AU)2.5625498
Tisserand w.r.t. Jupiter3.3
ΔV w.r.t. Earth (km/sec)10.9
semimajor axis (AU)2.7867619
mean anomaly (°)270.68651
mean daily motion (°/day)0.21186250
aphelion distance (AU)3.011
period (years)4.65
P-vector [x]-0.09479960
P-vector [y]-0.84312428
P-vector [z]-0.52929621
Q-vector [x]0.98201229
Q-vector [y]0.00801274
Q-vector [z]-0.18864693
absolute magnitude14.98
phase slope0.15
uncertainty0
referenceMPEC 2024-F50
observations used1051
oppositions18
arc length (days)8864
first opposition used1999
last opposition used2024
residual rms (arc-secs)0.75
perturbers coarse indicatorM-v
perturbers precise indicator003Ek
first observation date used1999-12-12.0
last observation date used2024-03-19.0
computer nameMPCLINUX
JD of orbit computation2456877.731807
perihelion JD uncertainty (days)2.1828E-04
argument of perihelion uncertainty (°)4.7123E-05
ascending node uncertainty (°)1.9530E-05
inclination uncertainty (°)7.9047E-06
eccentricity uncertainty 5.7546E-08
perihelion distance uncertainty (AU)1.5741E-07
Minimum Orbit Intersection Distances (in AU)
for orbit epoch: 2460400.5, reference: E2024-GB3
Mercury2.09798
Venus1.84565
Earth1.56228
Mars1.04294
Jupiter2.03422
Saturn6.09488
Uranus15.6679
Neptune26.8791

Observations

1089 total observations over interval: 1999 12 12.37537 – 2024 03 19.378410
These data are available for download (format description).

Date (UT) J2000 RA J2000 Dec Magn Location Ref
1999 12 12.37537 06 52 36.56 +37 40 14.2 19.3   704 – Lincoln Laboratory ETS, New Mexico MPS 9132
1999 12 12.39192 06 52 35.51 +37 40 19.0 19.6   704 – Lincoln Laboratory ETS, New Mexico MPS 9132
1999 12 12.40944 06 52 34.55 +37 40 23.8 19.4   704 – Lincoln Laboratory ETS, New Mexico MPS 9132
1999 12 15.32822 06 49 46.40 +37 56 09.5 18.8   704 – Lincoln Laboratory ETS, New Mexico MPS 9132
1999 12 15.34464 06 49 45.24 +37 56 13.3 19.4   704 – Lincoln Laboratory ETS, New Mexico MPS 9132
1999 12 15.36058 06 49 44.37 +37 56 19.6 19.1   704 – Lincoln Laboratory ETS, New Mexico MPS 9132
1999 12 15.39199 06 49 42.33 +37 56 28.1 19.4   704 – Lincoln Laboratory ETS, New Mexico MPS 9132
1999 12 30.22506 06 33 31.05 +38 58 15.2 19.0   704 – Lincoln Laboratory ETS, New Mexico MPS 29499
1999 12 30.23972 06 33 30.09 +38 58 17.7 19.3   704 – Lincoln Laboratory ETS, New Mexico MPS 29499
1999 12 30.25423 06 33 28.94 +38 58 19.6 19.1   704 – Lincoln Laboratory ETS, New Mexico MPS 29499
1999 12 30.28325 06 33 26.94 +38 58 25.5 19.6   704 – Lincoln Laboratory ETS, New Mexico MPS 29499
2000 01 27.25336 06 05 38.13 +39 13 25.2 19.6   704 – Lincoln Laboratory ETS, New Mexico MPS 29499
2000 01 27.26843 06 05 37.48 +39 13 23.5 20.1   704 – Lincoln Laboratory ETS, New Mexico MPS 29499
2000 01 27.29860 06 05 36.18 +39 13 21.6 19.7   704 – Lincoln Laboratory ETS, New Mexico MPS 29499
2001 03 16.30643 13 01 50.00 +07 55 42.8 18.4   704 – Lincoln Laboratory ETS, New Mexico MPS 28442
2001 03 16.31953 13 01 49.36 +07 55 45.2 19.2   704 – Lincoln Laboratory ETS, New Mexico MPS 28442
2001 03 16.33248 13 01 48.69 +07 55 46.9 19.1   704 – Lincoln Laboratory ETS, New Mexico MPS 28442
2001 03 16.34554 13 01 48.15 +07 55 49.8 19.1   704 – Lincoln Laboratory ETS, New Mexico MPS 28442
2001 03 16.35848 13 01 47.40 +07 55 52.4 18.9   704 – Lincoln Laboratory ETS, New Mexico MPS 28442
2001 03 18.50669 13 00 02.03 +08 02 35.8 20.0   608 – Haleakala-AMOS MPS 28442
2001 03 18.51702 13 00 01.51 +08 02 38.2 19.7   608 – Haleakala-AMOS MPS 28442
2001 03 18.52732 13 00 00.96 +08 02 39.8 20.1   608 – Haleakala-AMOS MPS 28442
2001 03 19.24616 12 59 25.04 +08 04 49.1 18.8 R 699 – Lowell Observatory-LONEOS MPS 28442
2001 03 19.28278 12 59 23.10 +08 04 56.1   699 – Lowell Observatory-LONEOS MPS 28442
2001 03 19.31946 12 59 21.21 +08 05 03.0   699 – Lowell Observatory-LONEOS MPS 28442
2001 03 19.35626 12 59 19.30 +08 05 10.0   699 – Lowell Observatory-LONEOS MPS 28442
2001 03 31.27488 12 48 29.00 +08 34 59.3 18.4   704 – Lincoln Laboratory ETS, New Mexico MPS 28442
2001 03 31.31382 12 48 26.69 +08 35 02.8 18.8   704 – Lincoln Laboratory ETS, New Mexico MPS 28442
2001 03 31.33589 12 48 25.38 +08 35 06.3 18.9   704 – Lincoln Laboratory ETS, New Mexico MPS 28442
2001 03 31.35432 12 48 24.33 +08 35 07.5 18.9   704 – Lincoln Laboratory ETS, New Mexico MPS 28442
2003 09 29.31425 03 20 26.99 +15 50 30.2 20.5   704 – Lincoln Laboratory ETS, New Mexico MPS 86173
2003 09 29.32797 03 20 26.59 +15 50 32.3 20.2   704 – Lincoln Laboratory ETS, New Mexico MPS 86173
2003 09 29.35414 03 20 25.96 +15 50 33.8 20.1   704 – Lincoln Laboratory ETS, New Mexico MPS 86173
2003 10 16.34261 03 10 28.01 +16 08 55.3 19.3 V 291 – LPL/Spacewatch II MPS 87298
2003 10 16.36696 03 10 26.85 +16 08 56.1 19.5 V 291 – LPL/Spacewatch II MPS 87298
2003 10 16.39157 03 10 25.68 +16 08 56.9 20.3 V 291 – LPL/Spacewatch II MPS 87298
2003 10 19.45125 03 07 57.84 +16 10 29.1 19.5 V 691 – Steward Observatory, Kitt Peak-Spacewatch MPS 87925
2003 10 19.48065 03 07 56.32 +16 10 29.9 19.3 V 691 – Steward Observatory, Kitt Peak-Spacewatch MPS 87925
2003 10 19.50936 03 07 54.86 +16 10 30.3 20.0 V 691 – Steward Observatory, Kitt Peak-Spacewatch MPS 87925
2003 10 23.17549 03 04 45.23 +16 11 39.7 20.1 R 460 – Area 52 Observatory, Nashville MPS 87925
2003 10 23.17983 03 04 44.97 +16 11 40.5 19.2 R 460 – Area 52 Observatory, Nashville MPS 87925
2003 10 23.26056 03 04 40.47 +16 11 41.5 19.1 R 460 – Area 52 Observatory, Nashville MPS 87925
2003 10 23.27425 03 04 39.75 +16 11 41.6 19.3 R 460 – Area 52 Observatory, Nashville MPS 87925
2003 10 23.33249 03 04 36.60 +16 11 43.0 18.9   704 – Lincoln Laboratory ETS, New Mexico MPS 87925
2003 10 23.34482 03 04 35.90 +16 11 43.5 19.2   704 – Lincoln Laboratory ETS, New Mexico MPS 87925
2003 10 23.35779 03 04 35.15 +16 11 43.3 19.4   704 – Lincoln Laboratory ETS, New Mexico MPS 87925
2003 10 23.37032 03 04 34.46 +16 11 43.5 19.4   704 – Lincoln Laboratory ETS, New Mexico MPS 87925
2003 10 23.38274 03 04 33.80 +16 11 43.7 19.8   704 – Lincoln Laboratory ETS, New Mexico MPS 87925
2003 10 28.26149 03 00 02.49 +16 12 11.8 19.2 R 460 – Area 52 Observatory, Nashville MPS 89367
2003 10 28.26492 03 00 02.33 +16 12 12.6 18.9   704 – Lincoln Laboratory ETS, New Mexico MPS 89367
2003 10 28.27017 03 00 01.96 +16 12 11.8 19.3 R 460 – Area 52 Observatory, Nashville MPS 89367
2003 10 28.28026 03 00 01.43 +16 12 12.2 19.8   704 – Lincoln Laboratory ETS, New Mexico MPS 89367
2003 10 28.29262 03 00 00.76 +16 12 13.2 19.9   704 – Lincoln Laboratory ETS, New Mexico MPS 89367
2003 10 28.30501 03 00 00.01 +16 12 13.9 19.4   704 – Lincoln Laboratory ETS, New Mexico MPS 89367
2003 10 28.31759 02 59 59.28 +16 12 12.4 18.9   704 – Lincoln Laboratory ETS, New Mexico MPS 89367
2003 10 29.30269 02 59 02.43 +16 12 11.6 19.1 V 703 – Catalina Sky Survey MPS 89367
2003 10 29.30948 02 59 02.06 +16 12 10.7 18.9 V 703 – Catalina Sky Survey MPS 89367
2003 10 29.31625 02 59 01.70 +16 12 11.2 19.1 V 703 – Catalina Sky Survey MPS 89367
2003 10 29.32306 02 59 01.32 +16 12 10.2 19.6 V 703 – Catalina Sky Survey MPS 89367
2003 11 01.26542 02 56 09.07 +16 11 53.7 19.2   704 – Lincoln Laboratory ETS, New Mexico MPS 89367
2003 11 01.27840 02 56 08.23 +16 11 52.9 19.0   704 – Lincoln Laboratory ETS, New Mexico MPS 89367
2003 11 01.29176 02 56 07.45 +16 11 53.5 18.9   704 – Lincoln Laboratory ETS, New Mexico MPS 89367
2003 11 01.30412 02 56 06.80 +16 11 52.8 19.2   704 – Lincoln Laboratory ETS, New Mexico MPS 89367
2003 11 01.31638 02 56 05.94 +16 11 52.5 18.9   704 – Lincoln Laboratory ETS, New Mexico MPS 89367
2003 11 18.24015 02 39 25.01 +16 06 48.0 19.1   644 – Palomar Mountain/NEAT MPS 90937
2003 11 18.26235 02 39 23.73 +16 06 47.3 19.2   644 – Palomar Mountain/NEAT MPS 90937
2003 11 18.28214 02 39 22.58 +16 06 46.8 18.8   644 – Palomar Mountain/NEAT MPS 90937
2003 11 19.22628 02 38 29.91 +16 06 28.9 19.1 R 699 – Lowell Observatory-LONEOS MPS 91764
2003 11 19.24539 02 38 28.75 +16 06 28.6   699 – Lowell Observatory-LONEOS MPS 91764
2003 11 19.26457 02 38 27.66 +16 06 28.8   699 – Lowell Observatory-LONEOS MPS 91764
2003 11 19.28378 02 38 26.59 +16 06 27.5   699 – Lowell Observatory-LONEOS MPS 91764
2003 11 20.18107 02 37 37.24 +16 06 12.3 19.3 V 291 – LPL/Spacewatch II MPS 90937
2003 11 20.20588 02 37 35.84 +16 06 11.9 19.3 V 291 – LPL/Spacewatch II MPS 90937
2003 11 20.22989 02 37 34.45 +16 06 11.5 20.3 V 291 – LPL/Spacewatch II MPS 90937
2003 11 21.20321 02 36 41.49 +16 05 56.1 19.3   704 – Lincoln Laboratory ETS, New Mexico MPS 91764
2003 11 21.21623 02 36 40.78 +16 05 55.8 19.1   704 – Lincoln Laboratory ETS, New Mexico MPS 91764
2003 11 21.22935 02 36 40.05 +16 05 55.9 19.3   704 – Lincoln Laboratory ETS, New Mexico MPS 91764
2003 11 21.24232 02 36 39.33 +16 05 55.3 19.1   704 – Lincoln Laboratory ETS, New Mexico MPS 91764
2003 11 21.25511 02 36 38.63 +16 05 55.6 19.7   704 – Lincoln Laboratory ETS, New Mexico MPS 91764
2003 11 23.27903 02 34 51.13 +16 05 26.9 19.8 V 291 – LPL/Spacewatch II MPS 91764
2003 11 23.30681 02 34 49.69 +16 05 26.4 19.4 V 291 – LPL/Spacewatch II MPS 91764
2003 11 23.33081 02 34 48.39 +16 05 26.0 19.5 V 291 – LPL/Spacewatch II MPS 91764
2003 12 01.20641 02 28 30.60 +16 05 06.4 19.2   704 – Lincoln Laboratory ETS, New Mexico MPS 92674
2003 12 01.21934 02 28 30.00 +16 05 07.3 19.8   704 – Lincoln Laboratory ETS, New Mexico MPS 92674
2003 12 01.23242 02 28 29.40 +16 05 07.1 19.5   704 – Lincoln Laboratory ETS, New Mexico MPS 92674
2003 12 01.24530 02 28 28.81 +16 05 07.8 19.2   704 – Lincoln Laboratory ETS, New Mexico MPS 92674
2003 12 01.25824 02 28 28.24 +16 05 07.7 19.5   704 – Lincoln Laboratory ETS, New Mexico MPS 92674
